Regional Weather Roundup
Issued by NWS

Home | Current Version | Previous Version | Graphics & Text | Print | Product List | Glossary On
Versions: 1 2 3 4 5 6 7 8 9 10 11 12 13 14 15 16 17 18 19 20 21 22 23 24 25 26 27 28 29 30 31 32 33 34 35 36 37 38 39 40 41 42 43 44 45 46 47 48 49 50
000
ASUS43 KLMK 161002
RWRKY
KENTUCKY REGIONAL WEATHER ROUNDUP
NATIONAL WEATHER SERVICE LOUISVILLE KY
500 AM EST TUE JAN 16 2018

NOTE "FAIR" INDICATES FEW OR NO CLOUDS BELOW 12,000 FEET
WITH NO SIGNIFICANT WEATHER AND/OR OBSTRUCTIONS TO VISIBILITY.

KYZ001>023-026-027-061>063-070>075-161100-
WESTERN AND SOUTH CENTRAL KENTUCKY

CITY           SKY/WX    TMP DP  RH WIND       PRES   REMARKS
PADUCAH        MIX PCPN  12  -2  53 NW10      30.60R WCI  -1
HENDERSON      FAIR       9   0  67 NW12      30.59S WCI  -6
OWENSBORO      CLOUDY     9   1  70 NW12      30.58S WCI  -6
HOPKINSVILLE   LGT SNOW  12   8  83 NW13      30.55R BLWGSNOWWCI  -3
BOWLING GREEN  LGT SNOW  15  11  83 N9G17     30.54R FOG     WCI   3
GLASGOW        NOT AVBL
$$

KYZ024-025-028>034-038-045-046-053-161100-
NORTH CENTRAL KENTUCKY

CITY           SKY/WX    TMP DP  RH WIND       PRES   REMARKS
LOUISVILLE/SDF LGT SNOW  11   4  73 NW12      30.53R WCI  -3
LOUISVILLE/LOU LGT SNOW  11   3  70 W10       30.53R WCI  -3
FORT KNOX      CLOUDY    10   4  78 W9        30.49R BLWGSNOWWCI  -3
$$

KYZ035>037-039>044-047>052-055>060-089>105-161100-
NORTHEAST KENTUCKY

CITY           SKY/WX    TMP DP  RH WIND       PRES   REMARKS
LEXINGTON      LGT SNOW  14   9  80 NW8       30.45R WCI   3
COVINGTON      FLURRIES  11   6  81 NW12      30.44R WCI  -3
FRANKFORT      LGT SNOW  14   8  77 NW6       30.46S WCI   5
$$

KYZ054-064>069-076>088-106>120-161100-
SOUTHEAST KENTUCKY

CITY           SKY/WX    TMP DP  RH WIND       PRES   REMARKS
JACKSON        MIX PCPN  28  23  81 NW5       30.36R WCI  23
LONDON         CLOUDY    26  22  84 N9        30.38R WCI  17
SOMERSET       NOT AVBL
MIDDLESBORO    CLOUDY    32  28  83 CALM      30.37R
MONTICELLO     FLURRIES  21  17  84 NW12      30.46S WCI   9
$$




USA.gov is the U.S. government's official web portal to all federal, state and local government web resources and services.